STARLINK-3347 (50811 NORAD) Tracking and Keplerian Element Data

This shows tracking and keplerian element data for the satellite.

Feedback or suggestion? Click here.




ElementValue
Catalog50811
NameSTARLINK-3347
Epoch Orbit130
Epoch Day140.58334491
Epoch Year2022
RAAN275.0545
Inclination53.2205
Eccentricity0.000207
Argument of Perigee34.2495
Mean Anonmoly187.2602
Mean Motion15.088725
Decay Rate-0.00069549
L11 50811U 22001J 22140.58334491 -.00069549 00000+0 -43903-2 0 9991
L22 50811 53.2205 275.0545 0002070 34.2495 187.2602 15.08872500 1304

Live tracking and technical data element details for STARLINK-3347 (NORAD 50811). STARLINK-3347 can be tracked NOW for your location showing map with azimuth and elevation plus other details from your city location.

Track the satellite on the map from your city or location and see movement details for azimuth, elevation, latitude, longitude, range, height, and movement on the map or in text.







IsCatalogInMostPopularTable: catalog: 50811, numindb: 20
Update: records affected: 1



GetName: 50811 STARLINK-3347

Hit Count: updated at: Mon, 23 May 2022 20:17:35 GMT